Avalon, Victoria

11:12 AM AEST on August 27, 2016 (GMT +1000)
Avalon

Weather History for YMAV - August, 2013

Change the Weather History Date:

Monday, August 12, 2013

  Actual Average (YMML) Record (YMML)
Temperature  
Mean Temperature 50 °F -  
Max Temperature 55 °F 55 °F 64 °F (2001)
Min Temperature 46 °F 41 °F 35 °F (2011)
Degree Days  
Heating Degree Days 14    
Moisture  
Dew Point 43 °F    
Average Humidity 72    
Maximum Humidity 93    
Minimum Humidity 44    
Precipitation  
Precipitation 0.00 in - - ()
Sea Level Pressure  
Sea Level Pressure 29.60 in    
Wind  
Wind Speed 16 mph ()    
Max Wind Speed 40 mph    
Max Gust Speed 54 mph    
Visibility 6.2 miles    
Events Rain , Thunderstorm    
Averages and records for this station are not official NWS values.
T = Trace of Precipitation, MM = Missing Value Source: Averaged Metar Reports

Daily Weather History Graph

Daily Weather History Graph

Search for Another Location

Airport or City:

Trip Planner

Search our weather history database for the weather conditions in past years. The results will help you decide how hot, cold, wet, or windy it might be!

Date:

Astronomy

Aug. 12, 2013 Rise Set
Actual Time 7:11 AM AEST 5:43 PM AEST
Civil Twilight 6:43 AM AEST 6:10 PM AEST
Nautical Twilight 6:12 AM AEST 6:42 PM AEST
Astronomical Twilight 5:41 AM AEST 7:12 PM AEST
Moon 9:37 AM AEST (8/12) 11:07 PM AEST (8/12)
Length of Visible Light 11h 27m
Length of Day
10h 32m
Waxing Crescent, 25% of the Moon is Illuminated
Aug 12
Waxing Crescent
Aug 14
First Quarter
Aug 21
Full
Aug 28
Last Quarter
Sep 5
New

Hourly Weather History & Observations

Time (AEST) Temp. Windchill Dew Point Humidity Pressure Visibility Wind Dir Wind Speed Gust Speed Precip Events Conditions
12:00 AM 53 °F - 47 °F 74% 29.65 in - NNE 11.5 mph - -   Overcast
12:00 AM 53.6 °F - 46.4 °F 77% 29.65 in 6.2 mi NNE 11.5 mph - N/A   Scattered Clouds
12:30 AM 53.6 °F - 46.4 °F 77% 29.62 in 6.2 mi NNE 10.4 mph - N/A   Scattered Clouds
1:00 AM 51.8 °F - 46.4 °F 82% 29.59 in 6.2 mi NNE 12.7 mph - N/A   Mostly Cloudy
1:30 AM 51.8 °F - 46.4 °F 82% 29.59 in 6.2 mi North 15.0 mph - N/A   Mostly Cloudy
2:00 AM 51.8 °F - 46.4 °F 82% 29.56 in 6.2 mi NNE 12.7 mph - N/A   Scattered Clouds
2:30 AM 51.8 °F - 46.4 °F 82% 29.56 in 6.2 mi NNE 12.7 mph - N/A   Scattered Clouds
3:00 AM 51 °F - 47 °F 83% 29.55 in - North 15.0 mph - -  
3:00 AM 51.8 °F - 48.2 °F 88% 29.53 in 6.2 mi North 15.0 mph - N/A   Unknown
3:30 AM 51.8 °F - 46.4 °F 82% 29.50 in 6.2 mi North 16.1 mph - N/A   Scattered Clouds
4:00 AM 51.8 °F - 48.2 °F 88% 29.50 in 6.2 mi North 15.0 mph - N/A   Unknown
4:30 AM 51.8 °F - 46.4 °F 82% 29.50 in 6.2 mi North 15.0 mph - N/A   Scattered Clouds
5:00 AM 53.6 °F - 46.4 °F 77% 29.50 in 6.2 mi North 17.3 mph - N/A   Mostly Cloudy
5:30 AM 53.6 °F - 46.4 °F 77% 29.47 in 6.2 mi North 16.1 mph - N/A   Overcast
6:00 AM 52 °F - 46 °F 71% 29.50 in - North 12.7 mph - -   Overcast
6:00 AM 51.8 °F - 46.4 °F 82% 29.50 in 6.2 mi North 12.7 mph - N/A   Mostly Cloudy
6:30 AM 53.6 °F - 46.4 °F 77% 29.50 in 6.2 mi NNW 11.5 mph - N/A   Scattered Clouds
7:00 AM 55.4 °F - 46.4 °F 72% 29.47 in 6.2 mi NW 15.0 mph - N/A   Mostly Cloudy
7:30 AM 53.6 °F - 46.4 °F 77% 29.50 in 6.2 mi NW 17.3 mph - N/A   Unknown
8:00 AM 53.6 °F - 46.4 °F 77% 29.50 in 6.2 mi WNW 19.6 mph - N/A   Scattered Clouds
8:30 AM 55.4 °F - 44.6 °F 67% 29.50 in 6.2 mi WNW 23.0 mph - N/A   Unknown
9:00 AM 55.4 °F - 44.6 °F 67% 29.50 in 6.2 mi WNW 31.1 mph - N/A   Unknown
9:12 AM 55.4 °F - 42.8 °F 63% 29.53 in 6.2 mi WNW 32.2 mph 43.7 mph N/A   Unknown
9:30 AM 53.6 °F - 44.6 °F 72% 29.53 in 6.2 mi WNW 36.8 mph 48.3 mph N/A   Scattered Clouds
10:00 AM 53.6 °F - 44.6 °F 72% 29.56 in 6.2 mi West 29.9 mph - N/A   Scattered Clouds
10:18 AM 53.6 °F - 42.8 °F 67% 29.53 in 6.2 mi West 31.1 mph 46.0 mph N/A   Mostly Cloudy
10:34 AM 53.6 °F - 42.8 °F 67% 29.56 in 6.2 mi WNW 28.8 mph 46.0 mph N/A Rain Light Rain
11:00 AM 51.8 °F - 44.6 °F 76% 29.59 in 6.2 mi WNW 27.6 mph - N/A Rain Light Rain Showers
11:09 AM 53.6 °F - 42.8 °F 67% 29.56 in 6.2 mi WNW 27.6 mph 43.7 mph N/A   Scattered Clouds
11:27 AM 53.6 °F - 41.0 °F 62% 29.56 in 6.2 mi WNW 40.3 mph - N/A   Scattered Clouds
11:34 AM 53.6 °F - 42.8 °F 67% 29.59 in 6.2 mi WNW 39.1 mph 50.6 mph N/A   Scattered Clouds
12:00 PM 53.6 °F - 41.0 °F 62% 29.59 in 6.2 mi WNW 39.1 mph 52.9 mph N/A   Mostly Cloudy
12:28 PM 51.8 °F - 39.2 °F 62% 29.59 in 6.2 mi West 26.5 mph 54.1 mph N/A   Mostly Cloudy
12:30 PM 51.8 °F - 39.2 °F 62% 29.59 in 6.2 mi West 28.8 mph 44.9 mph N/A   Mostly Cloudy
1:00 PM 53.6 °F - 39.2 °F 58% 29.59 in 6.2 mi West 34.5 mph 47.2 mph N/A Rain Light Rain Showers
1:24 PM 48.2 °F - 42.8 °F 82% 29.62 in 6.2 mi West 20.7 mph 49.5 mph N/A Rain Light Rain Showers
1:35 PM 51.8 °F - 42.8 °F 71% 29.62 in 6.2 mi West 20.7 mph 39.1 mph N/A   Scattered Clouds
2:00 PM 55.4 °F - 42.8 °F 63% 29.62 in 6.2 mi West 29.9 mph 42.6 mph N/A   Unknown
3:00 PM 55.4 °F - 37.4 °F 51% 29.65 in 6.2 mi West 26.5 mph - N/A   Unknown
3:14 PM 55.4 °F - 33.8 °F 44% 29.65 in 6.2 mi West 26.5 mph 38.0 mph N/A   Unknown
3:30 PM 55.4 °F - 35.6 °F 47% 29.65 in 6.2 mi West 26.5 mph 40.3 mph N/A   Unknown
4:00 PM 55.4 °F - 37.4 °F 51% 29.68 in 6.2 mi West 24.2 mph 36.8 mph N/A   Unknown
5:00 PM 51.8 °F - 39.2 °F 62% 29.68 in 6.2 mi WNW 17.3 mph - N/A   Scattered Clouds
5:28 PM 50.0 °F - 39.2 °F 66% 29.68 in 6.2 mi NW 10.4 mph - N/A Thunderstorm Unknown
5:30 PM 50.0 °F - 39.2 °F 66% 29.68 in 6.2 mi NW 10.4 mph - N/A Thunderstorm Unknown
5:38 PM 50.0 °F - 39.2 °F 66% 29.68 in 6.2 mi NW 8.1 mph - N/A   Unknown
6:00 PM 47 °F - 38 °F 63% 29.71 in - NNW 6.9 mph - -  
6:00 PM 46.4 °F 42.9 °F 39.2 °F 76% 29.71 in 6.2 mi NNW 6.9 mph - N/A   Unknown
6:30 PM 48.2 °F - 37.4 °F 66% 29.71 in 6.2 mi North 4.6 mph - N/A   Unknown
7:00 PM 46.4 °F 42.9 °F 37.4 °F 71% 29.68 in 6.2 mi North 6.9 mph - N/A   Unknown
7:30 PM 46.4 °F 42.4 °F 39.2 °F 76% 29.68 in 6.2 mi North 8.1 mph - N/A   Mostly Cloudy
8:00 PM 46.4 °F 41.1 °F 39.2 °F 76% 29.68 in 6.2 mi NNE 11.5 mph - N/A   Overcast
8:30 PM 46.4 °F 41.5 °F 37.4 °F 71% 29.68 in 6.2 mi North 10.4 mph - N/A   Overcast
9:00 PM 49 °F - 40 °F 62% 29.72 in - NW 17.3 mph - -   Overcast
9:00 PM 48.2 °F - 39.2 °F 71% 29.71 in 6.2 mi NW 17.3 mph - N/A Rain Light Rain
9:30 PM 48.2 °F - 41.0 °F 76% 29.71 in 6.2 mi WNW 13.8 mph - N/A Rain Light Rain
10:00 PM 46.4 °F 41.5 °F 42.8 °F 87% 29.68 in 6.2 mi NW 10.4 mph - N/A Rain Light Rain
10:30 PM 46.4 °F 41.9 °F 42.8 °F 87% 29.68 in 5.6 mi West 9.2 mph - N/A Rain Rain
11:00 PM 46.4 °F 40.7 °F 44.6 °F 93% 29.68 in 6.2 mi NW 12.7 mph - N/A Rain Light Rain
11:30 PM 46.4 °F 41.1 °F 42.8 °F 87% 29.68 in 6.2 mi NNW 11.5 mph - N/A   Mostly Cloudy